CYKACYLW

Guest
Details From CYKA - Kamloops
To CYLW - Kelowna
Flight Number -
Tags generated
Created
Modified
Stats Distance 61 nm / 113 km
Max Altitude 6,400 ft / 1,951 m
Waypoints 3
Social Downloads 0
Likes 0
Share VATSIM

Download

Looking for another format? Having issues loading an existing format? Contact us
Advertisement - Login to hide

Notes

Basic altitude profile: - Ascent Rate: 2500ft/min - Ascent Speed: 250kts - Cruise Altitude: 35000ft - Cruise Speed: 420kts - Descent Rate: 1500ft/min - Descent Speed: 250kts Options: - Use NATs: no - Use PACOTS: no - Use low airways: yes - Use high airways: no

Route

CYKA STUMM CYLW

ID Type Via Altitude Latitude Longitude Leg Dist Tot Dist Heading (true) Name
O CYKA APT - 0 ft / 0 m 50.70187˚ -120.44271˚ - 0 nm - Kamloops
STUMM FIX - 6,400 ft / 1,951 m 50.35500˚ -119.84944˚ 30 nm 30 nm 132° / 133° -
O CYLW APT - 0 ft / 0 m 49.95612˚ -119.37776˚ 30 nm 60 nm 143° / 143° Kelowna

Altitude Profile

Advertisement - Login to hide

CYKA

Details ICAO CYKA (YKA)
Name Kamloops
Region Canada
Timezone America/Vancouver (UTC-7.0)
Stats Elevation 1,133 ft / 345 m (AMSL)
Location 50.701875° -120.442709°
Runways 2
Magnetic Variation 16.008° E

METAR

CYKA 261200Z 27013G19KT 40SM BKN085 15/06 A2992 RMK AC5 SLP133 DENSITY ALT 1400FT

Decode

TAF

TAF CYKA 260639Z 2607/2619 VRB03KT P6SM FEW130 RMK NXT FCST BY 261300Z

Decode

Departure Runways

ID Width Length Bearing (true) Bearing (mag) Surface Threshold Offset Overrun Length
04 49 ft / 15 m 2,815 ft / 858 m 61.02° 45.01° Asphalt 686 ft / 209 m 0 ft / 0 m
08 148 ft / 45 m 5,999 ft / 1,828 m 103.28° 87.27° Asphalt 0 ft / 0 m 0 ft / 0 m
22 49 ft / 15 m 2,815 ft / 858 m 241.03° 225.02° Asphalt 0 ft / 0 m 0 ft / 0 m
26 148 ft / 45 m 5,999 ft / 1,828 m 283.30° 267.29° Asphalt 0 ft / 0 m 0 ft / 0 m

CYLW

Details ICAO CYLW (YLW)
Name Kelowna
Region Canada
Timezone America/Vancouver (UTC-7.0)
Stats Elevation 1,409 ft / 429 m (AMSL)
Location 49.956117° -119.377757°
Runways 1
Magnetic Variation 15.565° E

METAR

CYLW 261200Z AUTO 14008KT 9SM CLR 13/02 A2991 RMK SLP127

Decode

TAF

TAF CYLW 260639Z 2607/2619 VRB03KT P6SM FEW200 BECMG 2614/2616 19008KT RMK FCST BASED ON AUTO OBS. NXT FCST BY 261300Z

Decode

Destination Runways

ID Width Length Bearing (true) Bearing (mag) Surface Threshold Offset Overrun Length
16 200 ft / 61 m 7,299 ft / 2,225 m 174.89° 159.33° Asphalt 0 ft / 0 m 0 ft / 0 m
34 200 ft / 61 m 7,299 ft / 2,225 m 354.89° 339.33° Asphalt 0 ft / 0 m 0 ft / 0 m

Approach Navaids

Runway Type Ident Frequency Range Bearing (true) Bearing (mag) Slope Elevation
16 Localiser ILW 111.30 MHz 18 nm / 33 km 174.87° 159.31° - 1,049 ft / 320 m (AMSL)
16 Glidescope ILW 111.30 MHz 10 nm / 19 km 174.89° 159.32° 3.20° 1,409 ft / 429 m (AMSL)
16 DME ILW 111.30 MHz 18 nm / 33 km - - - 1,409 ft / 429 m (AMSL)

Popular Alternatives